DECAYED

STARLINK-11401, 61876 (Decayed)

Orbit data source: Space-Track

STARLINK-11401, 61876 was a payload satellite owned by SpaceX/Seattle (US) in LEO that was launched on Sat, 09 Nov 2024 UTC via an FALCON 9 launch vehicle from the Air Force Western Test Range (AFWTR). Payload-class satellites include a variety of spacecraft equipped with specific instruments for various scientific and technological missions. These include communications satellites like Starlink; space stations such as the ISS; scientific satellites like the Hubble; Earth observation satellites from companies like Planet Labs, Umbra, and HawkEye 360; GPS; miniature CubeSats for education and research; and military/defense satellites.

Not visible in the next 10 days
Identifier
61876, 2024-204C
Orbit
Decayed
Country
Flag of USUS
Related business
Manufacturer
SpaceX/Seattle
Mission
Decayed Commercial Communications
Bus & Motor
STARLINK V2MD, Unknown motor
Mass
960 kg wet, ~910 kg dry
Launch date (UTC)
2024-11-09 (2 years ago)
Launch vehicle
FALCON 9
Launch site
Air Force Western Test Range (AFWTR)
Object type
Payload
Rocket body
Debris
Shape & HBR
Box + 2 Pan, 18.1 m
Radar Cross Section
36.964 m², Large (>1 m²)

Expand to show TLE details & history
Last TLE update: 4 months ago

TLE from 4 months ago
0 STARLINK-11401
1 61876U 24204C   26048.30140661  .17330283  12138-4  25924-2 0  9991
2 61876  53.1352  89.2423 0002778 148.9322 211.1888 16.33608909 73813
Epoch: 2026-02-17T07:14Z
TLE epoch observation values (Epoch: 2026-02-17T07:14:01.531Z)
Latitude
0.00002°
Longitude
-166.54743°
Altitude
185.355 km
Speed
7.795 km/s
True Right ascension
05h 56m 58s
True Declination
0° 00' 00"
Sunlit
Object was in full shadow at epoch
Visualization orbit readout
Latitude
Unknown
Longitude
Unknown
Altitude
Unknown
Speed
Unknown
Apparent Right ascension
Unknown
Apparent Declination
Unknown
Sunlit
N/A
Visualization observer readout
Local Sidereal Time
07:12:14
Azimuth
Unknown
Elevation
Unknown
Doppler factor
Unknown
Orbital elements
Apogee altitude
184.953 km
Perigee altitude
181.308 km
Semi-major axis
6,561.268 km
Eccentricity
0.00028
Inclination
53.1352°
RAAN
89.2423°
Arg. of periapsis
148.9322°
True anomaly
211.17232°
Mean anomaly
211.1888°
Eccentric anomaly
211.18056°
Mean motion
4.08377 °/min
Orbital period
88.15 mins
BSTAR
0.0025924
Loading maneuver chart data...
Computing Atmospheric mass density...
Loading historical data...
Loading historical data...
Loading historical data...
Loading historical data...
Loading historical data...
Loading historical data...
Loading historical data...

Documentation

Showing up to 5 results
|